TimeEST,TemperatureF,Dew PointF,Humidity,Sea Level PressureIn,VisibilityMPH,Wind Direction,Wind SpeedMPH,Gust SpeedMPH,PrecipitationIn,Events,Conditions,WindDirDegrees,DateUTC
12:53 AM,48.9,25.0,39,30.31,10.0,Calm,Calm,-,N/A,,Clear,0,2011-12-04 05:53:00
1:53 AM,48.0,25.0,41,30.29,10.0,SSE,3.5,-,N/A,,Clear,160,2011-12-04 06:53:00
2:53 AM,45.0,25.0,46,30.30,10.0,SSW,4.6,-,N/A,,Clear,210,2011-12-04 07:53:00
3:53 AM,45.0,25.0,46,30.30,10.0,SW,4.6,-,N/A,,Clear,220,2011-12-04 08:53:00
4:53 AM,45.0,24.1,44,30.29,10.0,SSW,3.5,-,N/A,,Clear,200,2011-12-04 09:53:00
5:53 AM,45.0,25.0,46,30.30,10.0,SSW,3.5,-,N/A,,Clear,210,2011-12-04 10:53:00
6:53 AM,44.6,24.8,46,30.29,10.0,Variable,4.6,-,N/A,,Clear,0,2011-12-04 11:53:00
7:53 AM,46.9,24.1,41,30.30,10.0,Variable,4.6,-,N/A,,Clear,0,2011-12-04 12:53:00
8:53 AM,48.9,27.0,43,30.31,10.0,Variable,3.5,-,N/A,,Clear,0,2011-12-04 13:53:00
9:53 AM,53.1,30.9,43,30.30,10.0,Variable,4.6,-,N/A,,Clear,0,2011-12-04 14:53:00
10:53 AM,57.0,35.1,44,30.29,10.0,Variable,4.6,-,N/A,,Clear,0,2011-12-04 15:53:00
11:53 AM,59.0,37.9,46,30.27,10.0,Variable,3.5,-,N/A,,Clear,0,2011-12-04 16:53:00
12:53 PM,62.1,39.9,44,30.23,10.0,South,6.9,-,N/A,,Clear,190,2011-12-04 17:53:00
1:53 PM,64.9,39.9,40,30.21,10.0,SW,8.1,18.4,N/A,,Clear,220,2011-12-04 18:53:00
2:53 PM,63.0,39.9,43,30.22,10.0,South,11.5,24.2,N/A,,Clear,190,2011-12-04 19:53:00
3:53 PM,62.1,39.9,44,30.21,10.0,SSW,6.9,-,N/A,,Clear,200,2011-12-04 20:53:00
4:53 PM,61.0,39.9,46,30.22,10.0,South,8.1,-,N/A,,Clear,180,2011-12-04 21:53:00
5:53 PM,60.1,39.9,47,30.22,10.0,Variable,5.8,-,N/A,,Clear,0,2011-12-04 22:53:00
6:53 PM,59.0,39.9,49,30.23,10.0,Variable,3.5,-,N/A,,Clear,0,2011-12-04 23:53:00
7:53 PM,57.9,39.0,49,30.24,10.0,Calm,Calm,-,N/A,,Clear,0,2011-12-05 00:53:00
8:53 PM,57.0,39.0,51,30.24,10.0,Calm,Calm,-,N/A,,Clear,0,2011-12-05 01:53:00
9:53 PM,57.0,39.9,53,30.22,10.0,Variable,3.5,-,N/A,,Clear,0,2011-12-05 02:53:00
10:53 PM,57.9,39.9,51,30.19,10.0,Variable,4.6,-,N/A,,Clear,0,2011-12-05 03:53:00
11:53 PM,57.9,41.0,53,30.17,10.0,Variable,6.9,-,N/A,,Partly Cloudy,0,2011-12-05 04:53:00